Regional Weather Roundup
Issued by NWS

Home | Current Version | Previous Version | Graphics & Text | Print | Product List | Glossary On
Versions: 1 2 3 4 5 6 7 8 9 10 11 12 13 14 15 16 17 18 19 20 21 22 23 24 25 26 27 28 29 30 31 32 33 34 35 36 37 38 39 40 41 42 43 44 45 46 47 48 49 50
321
ASUS43 KBIS 101802
RWRND

NORTH DAKOTA REGIONAL WEATHER ROUNDUP
NATIONAL WEATHER SERVICE BISMARCK ND
1200 PM CST SAT DEC 10 2016

NOTE: "FAIR" INDICATES FEW OR NO CLOUDS BELOW 12,000 FEET WITH NO
SIGNIFICANT WEATHER AND/OR OBSTRUCTIONS TO VISIBILITY.


NDZ001>003-009>011-017-101900-
NORTHWEST NORTH DAKOTA

CITY           SKY/WX    TMP DP  RH WIND       PRES   REMARKS
WILLISTON      LGT SNOW  -1  -7  75 E9        30.14F WCI -16
6HR MIN TEMP: -11; 6HR MAX TEMP:  -1; 6HR PCP:  0.01;

MINOT          CLOUDY   -11 -16  78 E5        30.24F WCI -23
MINOT AFB      CLOUDY   -14 -20  76 SE5       30.24F WCI -27
$$

NDZ018>021-031>035-040>046-101900-
SOUTHWEST NORTH DAKOTA

CITY           SKY/WX    TMP DP  RH WIND       PRES   REMARKS
BISMARCK       CLOUDY   -11 -14  86 E9        30.25F WCI -29
6HR MIN TEMP: -17; 6HR MAX TEMP: -11; 6HR PCP: TRACE;

DICKINSON      CLOUDY    -2  -7  79 SE17      30.01F WCI -23
GARRISON         N/A     -8 -12  83 E8        30.21F WCI -24
6HR MIN TEMP: -14; 6HR MAX TEMP:  -7;

HETTINGER ARPT CLOUDY    -3  -7  82 SE13      30.04F WCI -22
$$

NDZ004>008-012>016-024-026-027-054-101900-
NORTHEAST NORTH DAKOTA

CITY           SKY/WX    TMP DP  RH WIND       PRES   REMARKS
GRAND FORKS    MOSUNNY   -3  -9  75 E5        30.42F WCI -13
GRND FRKS AFB  SUNNY     -4 -12  68 E3        30.40F
DEVILS LAKE    CLOUDY    -6  -9  86 SE9       30.31F WCI -23
$$

NDZ022-023-025-028>030-036>039-047>053-101900-
SOUTHEAST NORTH DAKOTA

CITY           SKY/WX    TMP DP  RH WIND       PRES   REMARKS
FARGO          CLOUDY     0  -8  69 E7        30.40F WCI -13
6HR MIN TEMP:  -6; 6HR MAX TEMP:   0;

JAMESTOWN      CLOUDY    -5 -10  79 SE9       30.29F WCI -22
$$





USA.gov is the U.S. government's official web portal to all federal, state and local government web resources and services.